STARLINK-34777, 65339

Orbit data source: Space-Track

STARLINK-34777, 65339 is a payload satellite owned by SpaceX/Seattle (US) in LEO that was launched on Wed, 27 Aug 2025 UTC via an FALCON 9 launch vehicle from the Air Force Eastern Test Range (AFETR). Payload-class satellites include a variety of spacecraft equipped with specific instruments for various scientific and technological missions. These include communications satellites like Starlink; space stations such as the ISS; scientific satellites like the Hubble; Earth observation satellites from companies like Planet Labs, Umbra, and HawkEye 360; GPS; miniature CubeSats for education and research; and military/defense satellites.

Loading next visibility...
Identifier
65339, 2025-189S
Orbit
LEO
Country
Flag of USUS
Related business
Manufacturer
SpaceX/Seattle
Mission
Operational Commercial Communications
Bus & Motor
STARLINK V2MO, Unknown motor
Mass
575 kg wet, ~530 kg dry
Launch date (UTC)
2025-08-27 (10 months ago)
Launch vehicle
FALCON 9
Launch site
Air Force Eastern Test Range (AFETR)
Object type
Payload
Rocket body
Debris
Shape & HBR
Box + 2 Pan, 17.7 m
Radar Cross Section
36.964 m², Large (>1 m²)

Expand to show TLE details & history
Last TLE update: 22 hours ago

TLE from 22 hours ago
0 STARLINK-34777
1 65339U 25189S   26170.97799696  .00015280  00000-0  50288-3 0  9991
2 65339  53.1607  91.1955 0001647 104.3318 255.7866 15.31718078 46783
Epoch: 2026-06-19T23:28Z
TLE epoch observation values (Epoch: 2026-06-19T23:28:18.937Z)
Latitude
-0.00004°
Longitude
-169.08266°
Altitude
471.864 km
Speed
7.631 km/s
True Right ascension
06h 04m 46s
True Declination
0° 00' 00"
Sunlit
Object was in daylight at epoch
Visualization orbit readout
Latitude
Unknown
Longitude
Unknown
Altitude
Unknown
Speed
Unknown
Apparent Right ascension
Unknown
Apparent Declination
Unknown
Sunlit
N/A
Visualization observer readout
Local Sidereal Time
08:32:42
Azimuth
Unknown
Elevation
Unknown
Doppler factor
Unknown
Orbital elements
Apogee altitude
472.071 km
Perigee altitude
469.815 km
Semi-major axis
6,849.08 km
Eccentricity
0.00016
Inclination
53.1607°
RAAN
91.1955°
Arg. of periapsis
104.3318°
True anomaly
255.76831°
Mean anomaly
255.7866°
Eccentric anomaly
255.77745°
Mean motion
3.82908 °/min
Orbital period
94.02 mins
BSTAR
0.00050288
Loading maneuver chart data...
Computing Atmospheric mass density...
Loading historical data...
Loading historical data...
Loading historical data...
Loading historical data...
Loading historical data...
Loading historical data...
Loading historical data...

Documentation

Showing up to 5 results
|